Regional Weather Roundup
Issued by NWS

Home | Current Version | Previous Version | Text Only | Print | Product List | Glossary Off
Versions: 1 2 3 4 5 6 7 8 9 10 11 12 13 14 15 16 17 18 19 20 21 22 23 24 25 26 27 28 29 30 31 32 33 34 35 36 37 38 39 40 41 42 43 44 45 46 47 48 49 50

000
ASUS44 KOUN 012200
RWROK

WEATHER ROUNDUP FOR OKLAHOMA
NATIONAL WEATHER SERVICE NORMAN OK
500 PM CDT WED OCT 01 2014

NOTE: "FAIR" INDICATES FEW OR NO CLOUDS BELOW 12,000 FEET WITH NO
      SIGNIFICANT WEATHER AND/OR OBSTRUCTIONS TO VISIBILITY.

OKZ001>007-009>012-014-015-017-012300-
NORTHWEST OKLAHOMA AND THE PANHANDLE

CITY           SKY/WX    TMP DP  RH WIND       PRES   REMARKS
GAGE           SUNNY     90  43  19 W13G21    29.69F
ENID/WOODRING  MOSUNNY   95  55  26 S21G29    29.62S HX  93
$$

OKZ016-021>023-033>039-044-045-012300-
SOUTHWEST OKLAHOMA

CITY           SKY/WX    TMP DP  RH WIND       PRES   REMARKS
LAWTON/REGL    SUNNY     95  61  32 S10G24    29.67F HX  95
FREDERICK      SUNNY     94  63  35 S10       29.64F HX  95
CLINTON        SUNNY     95  37  13 SW20G25   29.70F HX  90
HOBART         MOSUNNY   94  52  24 S18G26    29.68F HX  91
$$

OKZ018>020-024>031-012300-
CENTRAL OKLAHOMA

CITY           SKY/WX    TMP DP  RH WIND       PRES   REMARKS
OKLAHOMA CITY  MOSUNNY   93  62  35 S17G25    29.68F HX  93
OKC/WILEY POST SUNNY     93  61  34 SW16G26   29.67F HX  93
STILLWATER     SUNNY     93  63  36 SW18G28   29.65S HX  94
GUTHRIE        SUNNY     93  62  35 SW14G26   29.66S HX  93
$$

OKZ008-013-054>072-012300-
NORTHEAST OKLAHOMA

CITY           SKY/WX    TMP DP  RH WIND       PRES   REMARKS
TULSA          PTSUNNY   90  67  46 S22       29.67F HX  93
TULSA/JONES    MOSUNNY   90  66  45 S16G30    29.68S HX  92
PONCA CITY     SUNNY     92  61  35 S13G24    29.63F HX  92
BARTLESVILLE   PTSUNNY   88  69  53 S10G23    29.67F HX  92
MUSKOGEE       MOSUNNY   86  68  54 S16       29.75R
$$

OKZ032-040>043-046>053-073>077-012300-
SOUTH CENTRAL/SOUTHEAST OKLAHOMA

CITY           SKY/WX    TMP DP  RH WIND       PRES   REMARKS
MCALESTER      MOSUNNY   88  67  49 S14G21    29.75S HX  91
$$



USA.gov is the U.S. government's official web portal to all federal, state and local government web resources and services.